NAYIF-1 (EO-88) (42017 NORAD) Tracking and Keplerian Element Data

This shows tracking and keplerian element data for the satellite.

Feedback or suggestion? Click here.




ElementValue
Catalog42017
NameNAYIF-1 (EO-88)
Epoch Orbit7875
Epoch Day198.94600725
Epoch Year2018
RAAN263.8192
Inclination97.4463
Eccentricity0.0004701
Argument of Perigee272.1197
Mean Anonmoly87.9502
Mean Motion15.24533972
Decay Rate1.168E-05
L11 42017U 17008BX 18198.94600725 .00001168 00000-0 50394-4 0 9991
L22 42017 97.4463 263.8192 0004701 272.1197 87.9502 15.24533972 78750

Live tracking and technical data element details for NAYIF-1 (EO-88) (NORAD 42017). NAYIF-1 (EO-88) can be tracked NOW for your location showing map with azimuth and elevation plus other details from your city location.

Track the satellite on the map from your city or location and see movement details for azimuth, elevation, latitude, longitude, range, height, and movement on the map or in text.







IsCatalogInMostPopularTable: catalog: 42017, numindb: 116
Update: records affected: 1



GetName: 42017 NAYIF-1 (EO-88)

Hit Count: updated at: Fri, 20 Jul 2018 02:38:52 GMT